Regional Weather Roundup
Issued by NWS Raleigh/Durham, NC

Home | Current Version | Previous Version | Text Only | Print | Product List | Glossary On
Versions: 1 2 3 4 5 6 7 8 9 10 11 12 13 14 15 16 17 18 19 20 21 22 23 24 25 26 27
000
ASUS42 KRAH 211610
RWRRAH
NORTH CAROLINA WEATHER ROUNDUP
NATIONAL WEATHER SERVICE RALEIGH NC
1100 AM EST TUE NOV 21 2017

NOTE: "FAIR" INDICATES FEW OR NO CLOUDS BELOW 12,000 FEET WITH NO
SIGNIFICANT WEATHER AND/OR OBSTRUCTIONS TO VISIBILITY.

NCZ001-053-055-056-065-067-211700-
WESTERN NORTH CAROLINA

CITY           SKY/WX    TMP DP  RH WIND       PRES   REMARKS
ASHEVILLE      CLOUDY    52  42  69 S9        30.16F
JEFFERSON      CLOUDY    51  43  73 S8        30.13F
MORGANTON      CLOUDY    48  34  57 W3        30.22
HICKORY        CLOUDY    50  36  58 SW3       30.18F
RUTHERFORDTON  CLOUDY    50  35  56 CALM      30.19S
MOUNT AIRY     CLOUDY    47  31  54 CALM      30.21S
BOONE          CLOUDY    49  40  71 S5G18     30.14F
$$

NCZ021-022-025-041-071-084-088-211700-
CENTRAL NORTH CAROLINA

CITY           SKY/WX    TMP DP  RH WIND       PRES   REMARKS
CHARLOTTE      CLOUDY    55  39  54 S5        30.18F
GREENSBORO     CLOUDY    53  31  42 SW6       30.18F
WINSTON-SALEM    N/A     52  30  43 S6        30.19F
RALEIGH-DURHAM CLOUDY    54  40  59 CALM      30.21F
FORT BRAGG     MOSUNNY   55  41  58 SE3       30.20F
FAYETTEVILLE   MOSUNNY   56  43  61 SE5       30.21F
BURLINGTON     CLOUDY    52  37  56 CALM      30.19F
LAURINBURG     MOSUNNY   58  42  55 SE3       30.21F
$$

NCZ011-015-027-028-043-044-047-080-103-211700-
NORTHEASTERN NORTH CAROLINA

CITY           SKY/WX    TMP DP  RH WIND       PRES   REMARKS
ROCKY MT-WILSO MOSUNNY   56  44  64 VRB3      30.23F
GREENVILLE     MOSUNNY   54  39  58 CALM      30.25F
WASHINGTON     CLOUDY    55  40  57 CALM      30.27S
ELIZABETH CITY SUNNY     58  46  64 W5        30.26F
MANTEO         CLOUDY    56  42  59 CALM      30.27S
CAPE HATTERAS  CLOUDY    66  49  54 CALM      30.25F
$$

NCZ078-087-090-091-093-098-101-211700-
SOUTHEASTERN NORTH CAROLINA

CITY           SKY/WX    TMP DP  RH WIND       PRES   REMARKS
LUMBERTON      MOSUNNY   60  45  57 E5        30.21F
GOLDSBORO      MOSUNNY   55  42  61 CALM      30.21F
KINSTON        MOSUNNY   55  41  58 CALM      30.25F
KENANSVILLE    CLOUDY    55  43  62 SE3       30.24F
NEW BERN       CLOUDY    56  46  69 N3        30.26F
CHERRY POINT   NOT AVBL
BEAUFORT       CLOUDY    65  53  65 VRB6      30.23F
JACKSONVILLE   CLOUDY    58  47  66 NE5       30.23F
WILMINGTON     CLOUDY    63  49  60 NE5       30.23F
$$





USA.gov is the U.S. government's official web portal to all federal, state and local government web resources and services.